Location: Bonac
(42.8765°N, 0.9753°E)
Time: 08:45:31
(UTC+00:00)

Cosmos 2341 Rocket - Pass Details

Date: 12 January 2026
Orbit: 967 x 1004 km, 82.9° (Epoch: 17 February)

Event Time Altitude Azimuth Distance (km) Brightness Sun altitude
Rises 17:55:45 0° 352° (N) 3,725 6.9 -12.9°
Reaches altitude 10° 17:58:18 10° 353° (N) 2,767 6.3 -13.4°
Maximum altitude 18:04:40 85° 83° (E) 996 4.0 -14.5°
Drops below altitude 10° 18:10:55 10° 172° (S) 2,722 6.4 -15.6°
Sets 18:13:25 0° 173° (S) 3,661 7.1 -16.0°
